STARLINK-3782, 52273

Orbit data source: Space-Track

STARLINK-3782, 52273 is a payload satellite owned by SpaceX/Seattle (US) in LEO that was launched on Thu, 21 Apr 2022 UTC via an FALCON 9 launch vehicle from the Air Force Eastern Test Range (AFETR). Payload-class satellites include a variety of spacecraft equipped with specific instruments for various scientific and technological missions. These include communications satellites like Starlink; space stations such as the ISS; scientific satellites like the Hubble; Earth observation satellites from companies like Planet Labs, Umbra, and HawkEye 360; GPS; miniature CubeSats for education and research; and military/defense satellites.

Loading next visibility...
Identifier
52273, 2022-041N
Orbit
LEO
Country
Flag of USUS
Related business
Manufacturer
SpaceX/Seattle
Mission
Operational Commercial Communications
Bus & Motor
STARLINK, Unknown motor
Mass
297 kg wet, ~275 kg dry
Launch date (UTC)
2022-04-21 (4 years ago)
Launch vehicle
FALCON 9
Launch site
Air Force Eastern Test Range (AFETR)
Object type
Payload
Rocket body
Debris
Shape & HBR
Box + 1 Pan, 10.1 m
Radar Cross Section
11.087 m², Large (>1 m²)

Expand to show TLE details & history
Last TLE update: 16 hours ago

TLE from 16 hours ago
0 STARLINK-3782
1 52273U 22041N   26206.38268513  .00001172  00000-0  49508-4 0  9991
2 52273  53.1605 197.7096 0001282  62.1758 297.9373 15.31702992235337
Epoch: 2026-07-25T09:11Z
TLE epoch observation values (Epoch: 2026-07-25T09:11:03.995Z)
Latitude
-0.00003°
Longitude
116.84717°
Altitude
471.22 km
Speed
7.632 km/s
True Right ascension
13h 10m 50s
True Declination
0° 00' 00"
Sunlit
Object was in daylight at epoch
Visualization orbit readout
Latitude
Unknown
Longitude
Unknown
Altitude
Unknown
Speed
Unknown
Apparent Right ascension
Unknown
Apparent Declination
Unknown
Sunlit
N/A
Visualization observer readout
Local Sidereal Time
14:32:47
Azimuth
Unknown
Elevation
Unknown
Doppler factor
Unknown
Orbital elements
Apogee altitude
471.866 km
Perigee altitude
470.11 km
Semi-major axis
6,849.125 km
Eccentricity
0.00013
Inclination
53.1605°
RAAN
197.7096°
Arg. of periapsis
62.1758°
True anomaly
297.92432°
Mean anomaly
297.9373°
Eccentric anomaly
297.93081°
Mean motion
3.82905 °/min
Orbital period
94.02 mins
BSTAR
0.000049508
Loading maneuver chart data...
Computing Atmospheric mass density...
Loading historical data...
Loading historical data...
Loading historical data...
Loading historical data...
Loading historical data...
Loading historical data...
Loading historical data...

Documentation

Showing up to 5 results
|